^^
Saratoga-Weather Station Historical Data
Daily Summary for March 22, 2020 Units:  Metric    English   Both
Daily Weekly Monthly Yearly Custom
  High: Low: Average:
Temperature: 10.5 °C 1.7 °C 5.6 °C
Dew Point: 0.4 °C -5.6 °C -3 °C
Humidity: 77% 35% 56%
Wind Speed: 28.8km/h 1.4km/h 9.4km/h
Wind Gust: 40.2km/h - -
Wind- - East
Pressure: 1028.1 hPa 1022.4 hPa -
Precipitation: 0.0 mm    
Historical Graphs
 
 
Tabular Data for March 22, 2020
Time Temperature Dew Point Pressure Wind Wind Speed Wind Gust Humidity Rainfall Rate (Hourly) solar
00:03 4.1 °C 0.4 °C 1022.4 hPa ESE 4.7 km/h 14.5 km/h 77% 0.0 mm 0 W/m2
00:08 4.1 °C 0.4 °C 1022.4 hPa NE 1.4 km/h 14.5 km/h 77% 0.0 mm 0 W/m2
00:13 4.1 °C 0.3 °C 1022.4 hPa ENE 4.7 km/h 11.3 km/h 76% 0.0 mm 0 W/m2
00:18 4 °C 0.2 °C 1022.4 hPa East 9.7 km/h 14.5 km/h 76% 0.0 mm 0 W/m2
00:24 4 °C 0 °C 1022.4 hPa ENE 7.9 km/h 17.7 km/h 75% 0.0 mm 0 W/m2
00:29 3.9 °C -0.1 °C 1022.4 hPa NE 3.2 km/h 17.7 km/h 75% 0.0 mm 0 W/m2
00:34 3.9 °C -0.1 °C 1022.4 hPa NNE 9.7 km/h 9.7 km/h 75% 0.0 mm 0 W/m2
00:39 3.9 °C -0.1 °C 1022.4 hPa ENE 13 km/h 19.3 km/h 75% 0.0 mm 0 W/m2
00:44 3.9 °C -0.1 °C 1022.4 hPa NE 4.7 km/h 9.7 km/h 75% 0.0 mm 0 W/m2
00:49 3.9 °C -0.1 °C 1022.4 hPa East 17.7 km/h 17.7 km/h 75% 0.0 mm 0 W/m2
00:54 3.9 °C -0.1 °C 1022.4 hPa ESE 13 km/h 16.1 km/h 75% 0.0 mm 0 W/m2
00:59 3.9 °C -0.1 °C 1022.4 hPa East 4.7 km/h 20.9 km/h 75% 0.0 mm 0 W/m2
01:04 3.8 °C -0.2 °C 1022.4 hPa ENE 3.2 km/h 8 km/h 75% 0.0 mm 0 W/m2
01:09 3.8 °C -0.2 °C 1022.4 hPa ESE 3.2 km/h 16.1 km/h 75% 0.0 mm 0 W/m2
01:14 3.7 °C -0.3 °C 1022.4 hPa East 13 km/h 12.9 km/h 75% 0.0 mm 0 W/m2
01:19 3.7 °C -0.3 °C 1022.4 hPa East 6.4 km/h 6.4 km/h 75% 0.0 mm 0 W/m2
01:24 3.7 °C -0.3 °C 1022.4 hPa ENE 7.9 km/h 9.7 km/h 75% 0.0 mm 0 W/m2
01:29 3.6 °C -0.4 °C 1022.4 hPa NE 3.2 km/h 8 km/h 75% 0.0 mm 0 W/m2
01:34 3.6 °C -0.4 °C 1022.4 hPa ESE 6.4 km/h 12.9 km/h 75% 0.0 mm 0 W/m2
01:39 3.6 °C -0.6 °C 1022.4 hPa ENE 16.3 km/h 16.1 km/h 74% 0.0 mm 0 W/m2
01:44 3.5 °C -0.7 °C 1022.4 hPa NE 4.7 km/h 14.5 km/h 74% 0.0 mm 0 W/m2
01:49 3.5 °C -0.7 °C 1022.7 hPa East 11.1 km/h 16.1 km/h 74% 0.0 mm 0 W/m2
01:55 3.4 °C -0.8 °C 1022.4 hPa NE 1.4 km/h 4.8 km/h 74% 0.0 mm 0 W/m2
02:00 3.4 °C -0.8 °C 1022.4 hPa SSE 4.7 km/h 6.4 km/h 74% 0.0 mm 0 W/m2
02:05 3.4 °C -0.8 °C 1022.4 hPa ENE 6.4 km/h 20.9 km/h 74% 0.0 mm 0 W/m2
02:10 3.3 °C -0.9 °C 1022.4 hPa ESE 9.7 km/h 9.7 km/h 74% 0.0 mm 0 W/m2
02:15 3.3 °C -0.9 °C 1022.4 hPa ENE 6.4 km/h 20.9 km/h 74% 0.0 mm 0 W/m2
02:20 3.3 °C -0.9 °C 1022.4 hPa ENE 7.9 km/h 14.5 km/h 74% 0.0 mm 0 W/m2
02:25 3.3 °C -0.9 °C 1022.4 hPa NE 7.9 km/h 12.9 km/h 74% 0.0 mm 0 W/m2
02:30 3.3 °C -0.9 °C 1022.4 hPa ENE 6.4 km/h 20.9 km/h 74% 0.0 mm 0 W/m2
02:35 3.3 °C -0.9 °C 1022.4 hPa ESE 4.7 km/h 6.4 km/h 74% 0.0 mm 0 W/m2
02:40 3.3 °C -0.9 °C 1022.4 hPa East 11.1 km/h 16.1 km/h 74% 0.0 mm 0 W/m2
02:45 3.3 °C -0.9 °C 1022.4 hPa East 3.2 km/h 12.9 km/h 74% 0.0 mm 0 W/m2
02:50 3.3 °C -0.9 °C 1022.4 hPa ESE 3.2 km/h 11.3 km/h 74% 0.0 mm 0 W/m2
02:55 3.3 °C -1.1 °C 1022.4 hPa East 4.7 km/h 20.9 km/h 73% 0.0 mm 0 W/m2
03:00 3.2 °C -1.2 °C 1022.4 hPa ENE 6.4 km/h 17.7 km/h 73% 0.0 mm 0 W/m2
03:05 3.2 °C -1.2 °C 1022.4 hPa East 6.4 km/h 20.9 km/h 73% 0.0 mm 0 W/m2
03:10 3.2 °C -1.2 °C 1022.4 hPa NE 7.9 km/h 8 km/h 73% 0.0 mm 0 W/m2
03:15 3.2 °C -1.2 °C 1022.4 hPa East 6.4 km/h 20.9 km/h 73% 0.0 mm 0 W/m2
03:20 3.2 °C -1.2 °C 1022.4 hPa NE 11.1 km/h 14.5 km/h 73% 0.0 mm 0 W/m2
03:25 3.2 °C -1.2 °C 1022.4 hPa East 6.4 km/h 17.7 km/h 73% 0.0 mm 0 W/m2
03:30 3.2 °C -1.4 °C 1022.4 hPa NE 9.7 km/h 12.9 km/h 72% 0.0 mm 0 W/m2
03:35 3.1 °C -1.3 °C 1022.4 hPa ENE 7.9 km/h 16.1 km/h 73% 0.0 mm 0 W/m2
03:40 3.2 °C -1.2 °C 1022.4 hPa ENE 3.2 km/h 14.5 km/h 73% 0.0 mm 0 W/m2
03:45 3.1 °C -1.5 °C 1022.4 hPa ESE 6.4 km/h 20.9 km/h 72% 0.0 mm 0 W/m2
03:50 3.1 °C -1.5 °C 1022.4 hPa ESE 3.2 km/h 12.9 km/h 72% 0.0 mm 0 W/m2
03:55 3.1 °C -1.5 °C 1022.4 hPa ESE 14.3 km/h 19.3 km/h 72% 0.0 mm 0 W/m2
04:01 3.1 °C -1.5 °C 1022.4 hPa ESE 13 km/h 12.9 km/h 72% 0.0 mm 0 W/m2
04:06 3.1 °C -1.5 °C 1022.4 hPa East 14.3 km/h 16.1 km/h 72% 0.0 mm 0 W/m2
04:11 3.1 °C -1.5 °C 1022.4 hPa East 6.4 km/h 17.7 km/h 72% 0.0 mm 0 W/m2
04:16 3.1 °C -1.5 °C 1022.4 hPa East 7.9 km/h 16.1 km/h 72% 0.0 mm 0 W/m2
04:21 3.1 °C -1.5 °C 1022.4 hPa ESE 9.7 km/h 16.1 km/h 72% 0.0 mm 0 W/m2
04:26 3.1 °C -1.5 °C 1022.7 hPa ESE 6.4 km/h 24.1 km/h 72% 0.0 mm 0 W/m2
04:31 3.1 °C -1.5 °C 1022.7 hPa East 9.7 km/h 14.5 km/h 72% 0.0 mm 0 W/m2
04:36 3.1 °C -1.6 °C 1022.7 hPa ENE 4.7 km/h 27.4 km/h 71% 0.0 mm 0 W/m2
04:41 3.1 °C -1.5 °C 1022.7 hPa East 4.7 km/h 12.9 km/h 72% 0.0 mm 0 W/m2
04:46 3 °C -1.6 °C 1022.7 hPa ESE 13 km/h 20.9 km/h 72% 0.0 mm 0 W/m2
04:51 2.9 °C -1.6 °C 1022.7 hPa ESE 4.7 km/h 9.7 km/h 72% 0.0 mm 0 W/m2
04:56 2.9 °C -1.8 °C 1022.7 hPa NE 4.7 km/h 11.3 km/h 71% 0.0 mm 0 W/m2
05:01 2.8 °C -1.9 °C 1022.7 hPa ENE 6.4 km/h 14.5 km/h 71% 0.0 mm 0 W/m2
05:06 2.8 °C -1.9 °C 1022.7 hPa ENE 6.4 km/h 11.3 km/h 71% 0.0 mm 0 W/m2
05:11 2.7 °C -2 °C 1023.0 hPa NE 14.3 km/h 14.5 km/h 71% 0.0 mm 0 W/m2
05:16 2.7 °C -2 °C 1023.0 hPa East 4.7 km/h 9.7 km/h 71% 0.0 mm 0 W/m2
05:21 2.6 °C -2.1 °C 1023.0 hPa SE 3.2 km/h 12.9 km/h 71% 0.0 mm 0 W/m2
05:26 2.5 °C -2 °C 1023.0 hPa ENE 9.7 km/h 17.7 km/h 72% 0.0 mm 0 W/m2
05:31 2.4 °C -2.1 °C 1023.0 hPa SE 3.2 km/h 11.3 km/h 72% 0.0 mm 0 W/m2
05:36 2.4 °C -2.1 °C 1023.0 hPa East 9.7 km/h 14.5 km/h 72% 0.0 mm 0 W/m2
05:41 2.3 °C -2.4 °C 1023.0 hPa NE 7.9 km/h 12.9 km/h 71% 0.0 mm 0 W/m2
05:46 2.2 °C -2.3 °C 1023.0 hPa East 7.9 km/h 11.3 km/h 72% 0.0 mm 0 W/m2
05:51 2.2 °C -2.3 °C 1023.4 hPa ENE 6.4 km/h 12.9 km/h 72% 0.0 mm 0 W/m2
05:56 2.1 °C -2.4 °C 1023.4 hPa ESE 4.7 km/h 14.5 km/h 72% 0.0 mm 0 W/m2
06:01 2.1 °C -2.4 °C 1023.4 hPa SE 6.4 km/h 12.9 km/h 72% 0.0 mm 0 W/m2
06:06 2 °C -2.5 °C 1023.4 hPa NE 14.3 km/h 14.5 km/h 72% 0.0 mm 0 W/m2
06:11 1.9 °C -2.6 °C 1023.4 hPa East 4.7 km/h 17.7 km/h 72% 0.0 mm 0 W/m2
06:16 1.9 °C -2.6 °C 1023.4 hPa ESE 6.4 km/h 12.9 km/h 72% 0.0 mm 0 W/m2
06:21 1.9 °C -2.6 °C 1023.4 hPa East 7.9 km/h 17.7 km/h 72% 0.0 mm 0 W/m2
06:26 1.8 °C -2.7 °C 1023.4 hPa East 7.9 km/h 9.7 km/h 72% 0.0 mm 0 W/m2
06:31 1.8 °C -2.7 °C 1023.4 hPa North 7.9 km/h 17.7 km/h 72% 0.0 mm 0 W/m2
06:37 1.8 °C -2.7 °C 1023.4 hPa ENE 7.9 km/h 11.3 km/h 72% 0.0 mm 7 W/m2
06:42 1.8 °C -2.7 °C 1023.7 hPa ESE 4.7 km/h 17.7 km/h 72% 0.0 mm 11 W/m2
06:47 1.7 °C -2.8 °C 1023.7 hPa ENE 9.7 km/h 17.7 km/h 72% 0.0 mm 14 W/m2
06:52 1.7 °C -2.8 °C 1023.7 hPa SE 6.4 km/h 11.3 km/h 72% 0.0 mm 19 W/m2
06:57 1.7 °C -3 °C 1023.7 hPa ENE 3.2 km/h 17.7 km/h 71% 0.0 mm 21 W/m2
07:02 1.7 °C -2.8 °C 1023.7 hPa East 4.7 km/h 14.5 km/h 72% 0.0 mm 21 W/m2
07:07 1.7 °C -2.8 °C 1023.7 hPa East 11.1 km/h 12.9 km/h 72% 0.0 mm 25 W/m2
07:12 1.7 °C -3 °C 1024.0 hPa East 6.4 km/h 16.1 km/h 71% 0.0 mm 25 W/m2
07:17 1.7 °C -3 °C 1024.0 hPa ESE 6.4 km/h 6.4 km/h 71% 0.0 mm 26 W/m2
07:22 1.7 °C -2.8 °C 1024.0 hPa ESE 3.2 km/h 11.3 km/h 72% 0.0 mm 28 W/m2
07:27 1.7 °C -2.8 °C 1024.0 hPa ENE 6.4 km/h 14.5 km/h 72% 0.0 mm 30 W/m2
07:32 1.8 °C -2.9 °C 1024.0 hPa East 11.1 km/h 12.9 km/h 71% 0.0 mm 32 W/m2
07:37 1.8 °C -2.9 °C 1024.0 hPa East 6.4 km/h 9.7 km/h 71% 0.0 mm 33 W/m2
07:42 1.9 °C -3 °C 1024.0 hPa ENE 6.4 km/h 22.5 km/h 70% 0.0 mm 76 W/m2
07:47 2 °C -2.9 °C 1024.0 hPa ENE 4.7 km/h 9.7 km/h 70% 0.0 mm 135 W/m2
07:52 2.1 °C -2.8 °C 1024.0 hPa East 13 km/h 17.7 km/h 70% 0.0 mm 88 W/m2
07:57 2.1 °C -2.8 °C 1024.4 hPa East 4.7 km/h 16.1 km/h 70% 0.0 mm 84 W/m2
08:02 2.2 °C -2.9 °C 1024.4 hPa East 11.1 km/h 19.3 km/h 69% 0.0 mm 109 W/m2
08:07 2.2 °C -2.7 °C 1024.4 hPa East 6.4 km/h 11.3 km/h 70% 0.0 mm 114 W/m2
08:12 2.3 °C -2.8 °C 1024.4 hPa ESE 4.7 km/h 9.7 km/h 69% 0.0 mm 118 W/m2
08:17 2.3 °C -2.8 °C 1024.4 hPa ESE 17.7 km/h 17.7 km/h 69% 0.0 mm 118 W/m2
08:22 2.4 °C -2.7 °C 1024.4 hPa ENE 16.3 km/h 22.5 km/h 69% 0.0 mm 47 W/m2
08:28 2.4 °C -2.7 °C 1024.7 hPa NE 4.7 km/h 14.5 km/h 69% 0.0 mm 53 W/m2
08:33 2.6 °C -2.5 °C 1024.7 hPa ENE 14.3 km/h 25.7 km/h 69% 0.0 mm 255 W/m2
08:38 2.7 °C -2.6 °C 1024.7 hPa NE 9.7 km/h 22.5 km/h 68% 0.0 mm 265 W/m2
08:43 2.8 °C -2.7 °C 1024.7 hPa ENE 7.9 km/h 16.1 km/h 67% 0.0 mm 276 W/m2
08:48 3.1 °C -2.6 °C 1024.7 hPa ESE 16.3 km/h 32.2 km/h 66% 0.0 mm 287 W/m2
08:53 3.2 °C -2.5 °C 1024.7 hPa East 13 km/h 22.5 km/h 66% 0.0 mm 301 W/m2
08:58 3.3 °C -2.2 °C 1024.7 hPa East 14.3 km/h 27.4 km/h 67% 0.0 mm 313 W/m2
09:03 3.4 °C -2.3 °C 1024.7 hPa East 16.3 km/h 22.5 km/h 66% 0.0 mm 323 W/m2
09:08 3.6 °C -2.2 °C 1024.7 hPa ENE 14.3 km/h 24.1 km/h 66% 0.0 mm 339 W/m2
09:13 3.7 °C -2.3 °C 1024.7 hPa ESE 17.7 km/h 22.5 km/h 65% 0.0 mm 350 W/m2
09:18 3.8 °C -2.2 °C 1025.1 hPa ENE 11.1 km/h 12.9 km/h 65% 0.0 mm 364 W/m2
09:23 3.9 °C -2.3 °C 1025.1 hPa East 14.3 km/h 25.7 km/h 64% 0.0 mm 369 W/m2
09:28 3.9 °C -2.1 °C 1024.7 hPa SE 16.3 km/h 19.3 km/h 65% 0.0 mm 383 W/m2
09:33 4 °C -2.2 °C 1025.1 hPa ENE 17.7 km/h 20.9 km/h 64% 0.0 mm 396 W/m2
09:38 4.1 °C -2.3 °C 1024.7 hPa East 4.7 km/h 32.2 km/h 63% 0.0 mm 408 W/m2
09:43 4.3 °C -1.9 °C 1025.1 hPa NE 14.3 km/h 14.5 km/h 64% 0.0 mm 418 W/m2
09:48 4.5 °C -1.9 °C 1024.7 hPa NE 7.9 km/h 24.1 km/h 63% 0.0 mm 429 W/m2
09:53 4.7 °C -2.2 °C 1025.1 hPa ESE 13 km/h 30.6 km/h 61% 0.0 mm 441 W/m2
09:58 4.7 °C -2 °C 1024.7 hPa ENE 4.7 km/h 24.1 km/h 62% 0.0 mm 452 W/m2
10:03 4.8 °C -2.1 °C 1025.1 hPa East 13 km/h 30.6 km/h 61% 0.0 mm 461 W/m2
10:08 5 °C -2.1 °C 1025.1 hPa ESE 6.4 km/h 25.7 km/h 60% 0.0 mm 471 W/m2
10:13 4.9 °C -2 °C 1025.1 hPa ESE 7.9 km/h 22.5 km/h 61% 0.0 mm 483 W/m2
10:18 5.2 °C -1.9 °C 1025.1 hPa SSE 17.7 km/h 20.9 km/h 60% 0.0 mm 490 W/m2
10:23 5.2 °C -2.2 °C 1025.1 hPa East 6.4 km/h 25.7 km/h 59% 0.0 mm 497 W/m2
10:28 5.2 °C -2.2 °C 1025.1 hPa ESE 11.1 km/h 19.3 km/h 59% 0.0 mm 506 W/m2
10:33 5.3 °C -2.1 °C 1025.1 hPa East 11.1 km/h 25.7 km/h 59% 0.0 mm 510 W/m2
10:38 5.7 °C -1.7 °C 1025.1 hPa East 16.3 km/h 20.9 km/h 59% 0.0 mm 522 W/m2
10:43 5.8 °C -2.1 °C 1025.1 hPa ESE 4.7 km/h 20.9 km/h 57% 0.0 mm 529 W/m2
10:48 5.9 °C -2.2 °C 1025.1 hPa ENE 9.7 km/h 27.4 km/h 56% 0.0 mm 536 W/m2
10:53 5.9 °C -2.2 °C 1025.1 hPa ESE 11.1 km/h 20.9 km/h 56% 0.0 mm 545 W/m2
10:58 5.9 °C -2.5 °C 1025.1 hPa ENE 24.1 km/h 27.4 km/h 55% 0.0 mm 552 W/m2
11:03 6.2 °C -1.9 °C 1025.1 hPa East 16.3 km/h 19.3 km/h 56% 0.0 mm 559 W/m2
11:08 6.3 °C -2.3 °C 1025.1 hPa ESE 9.7 km/h 17.7 km/h 54% 0.0 mm 564 W/m2
11:13 6.4 °C -2 °C 1025.1 hPa ESE 20.9 km/h 24.1 km/h 55% 0.0 mm 570 W/m2
11:18 6.5 °C -2.4 °C 1025.1 hPa East 17.7 km/h 19.3 km/h 53% 0.0 mm 578 W/m2
11:23 6.6 °C -2.6 °C 1025.1 hPa East 9.7 km/h 25.7 km/h 52% 0.0 mm 584 W/m2
11:28 6.7 °C -2.5 °C 1025.1 hPa East 11.1 km/h 17.7 km/h 52% 0.0 mm 589 W/m2
11:33 6.9 °C -2.3 °C 1025.1 hPa East 17.7 km/h 20.9 km/h 52% 0.0 mm 596 W/m2
11:38 6.9 °C -2.8 °C 1025.1 hPa East 13 km/h 27.4 km/h 50% 0.0 mm 598 W/m2
11:43 6.9 °C -2.5 °C 1025.1 hPa East 7.9 km/h 22.5 km/h 51% 0.0 mm 605 W/m2
11:49 7.1 °C -2.9 °C 1025.1 hPa NE 7.9 km/h 27.4 km/h 49% 0.0 mm 608 W/m2
11:54 7.3 °C -2.4 °C 1025.1 hPa NE 19.5 km/h 19.3 km/h 50% 0.0 mm 613 W/m2
12:06 7.5 °C -3.1 °C 1025.1 hPa East 7.9 km/h 22.5 km/h 47% 0.0 mm 619 W/m2
12:11 7.6 °C -3 °C 1025.1 hPa ESE 11.1 km/h 19.3 km/h 47% 0.0 mm 622 W/m2
12:16 7.7 °C -3.2 °C 1025.1 hPa North 9.7 km/h 40.2 km/h 46% 0.0 mm 622 W/m2
12:21 7.7 °C -2.9 °C 1025.1 hPa East 6.4 km/h 24.1 km/h 47% 0.0 mm 626 W/m2
12:26 7.6 °C -3.3 °C 1025.1 hPa ENE 7.9 km/h 27.4 km/h 46% 0.0 mm 629 W/m2
12:31 7.7 °C -3.2 °C 1025.1 hPa ENE 7.9 km/h 17.7 km/h 46% 0.0 mm 628 W/m2
12:36 7.9 °C -3 °C 1025.1 hPa ENE 11.1 km/h 19.3 km/h 46% 0.0 mm 628 W/m2
12:41 8.1 °C -2.8 °C 1025.1 hPa NNE 13 km/h 24.1 km/h 46% 0.0 mm 628 W/m2
12:46 8.2 °C -2.4 °C 1024.7 hPa ESE 19.5 km/h 22.5 km/h 47% 0.0 mm 628 W/m2
12:52 8.3 °C -3.2 °C 1025.1 hPa East 14.3 km/h 29 km/h 44% 0.0 mm 629 W/m2
12:57 8.2 °C -3.3 °C 1025.1 hPa ENE 6.4 km/h 25.7 km/h 44% 0.0 mm 629 W/m2
13:02 8.5 °C -3.4 °C 1024.7 hPa ENE 11.1 km/h 29 km/h 43% 0.0 mm 629 W/m2
13:07 8.7 °C -2.6 °C 1024.7 hPa East 16.3 km/h 20.9 km/h 45% 0.0 mm 628 W/m2
13:12 8.6 °C -3 °C 1024.7 hPa East 6.4 km/h 29 km/h 44% 0.0 mm 624 W/m2
13:17 8.9 °C -2.7 °C 1024.7 hPa ESE 11.1 km/h 19.3 km/h 44% 0.0 mm 619 W/m2
13:22 8.9 °C -2.7 °C 1024.7 hPa ESE 9.7 km/h 20.9 km/h 44% 0.0 mm 619 W/m2
13:27 9.1 °C -3.1 °C 1024.7 hPa ENE 25.9 km/h 25.7 km/h 42% 0.0 mm 617 W/m2
13:32 9 °C -3.2 °C 1024.7 hPa NE 9.7 km/h 27.4 km/h 42% 0.0 mm 613 W/m2
13:37 8.9 °C -3.3 °C 1024.7 hPa ENE 14.3 km/h 24.1 km/h 42% 0.0 mm 610 W/m2
13:42 8.9 °C -3.3 °C 1024.7 hPa ENE 3.2 km/h 29 km/h 42% 0.0 mm 605 W/m2
13:47 9.2 °C -2.7 °C 1024.7 hPa SE 4.7 km/h 19.3 km/h 43% 0.0 mm 598 W/m2
13:52 9.3 °C -2.6 °C 1024.7 hPa ESE 6.4 km/h 29 km/h 43% 0.0 mm 594 W/m2
13:57 9.4 °C -2.6 °C 1024.7 hPa East 9.7 km/h 17.7 km/h 43% 0.0 mm 591 W/m2
14:02 9.3 °C -2.6 °C 1024.7 hPa ESE 11.1 km/h 12.9 km/h 43% 0.0 mm 587 W/m2
14:07 9.4 °C -2.9 °C 1024.7 hPa ENE 7.9 km/h 24.1 km/h 42% 0.0 mm 580 W/m2
14:12 9.3 °C -3.3 °C 1024.7 hPa East 6.4 km/h 24.1 km/h 41% 0.0 mm 575 W/m2
14:17 9.4 °C -3.2 °C 1024.7 hPa East 11.1 km/h 20.9 km/h 41% 0.0 mm 566 W/m2
14:22 9.5 °C -3.1 °C 1024.7 hPa ESE 4.7 km/h 20.9 km/h 41% 0.0 mm 559 W/m2
14:27 9.5 °C -3.1 °C 1024.7 hPa SE 14.3 km/h 29 km/h 41% 0.0 mm 554 W/m2
14:32 9.6 °C -3 °C 1024.7 hPa ESE 24.1 km/h 24.1 km/h 41% 0.0 mm 548 W/m2
14:37 9.7 °C -2.9 °C 1024.7 hPa ESE 4.7 km/h 14.5 km/h 41% 0.0 mm 540 W/m2
14:42 9.8 °C -2.8 °C 1024.7 hPa NE 14.3 km/h 20.9 km/h 41% 0.0 mm 534 W/m2
14:47 10 °C -3.3 °C 1024.7 hPa East 7.9 km/h 14.5 km/h 39% 0.0 mm 527 W/m2
14:52 10 °C -3 °C 1024.7 hPa SE 6.4 km/h 19.3 km/h 40% 0.0 mm 519 W/m2
14:57 10.1 °C -3.2 °C 1024.4 hPa NE 17.7 km/h 27.4 km/h 39% 0.0 mm 508 W/m2
15:02 10.1 °C -3.6 °C 1024.7 hPa ENE 14.3 km/h 20.9 km/h 38% 0.0 mm 501 W/m2
15:07 10.3 °C -3.4 °C 1024.4 hPa ENE 6.4 km/h 12.9 km/h 38% 0.0 mm 492 W/m2
15:12 10.5 °C -3.2 °C 1024.4 hPa East 14.3 km/h 20.9 km/h 38% 0.0 mm 480 W/m2
15:17 10.4 °C -4 °C 1024.4 hPa SE 6.4 km/h 27.4 km/h 36% 0.0 mm 473 W/m2
15:22 10.3 °C -3.4 °C 1024.4 hPa ESE 6.4 km/h 20.9 km/h 38% 0.0 mm 466 W/m2
15:27 10.4 °C -3.7 °C 1024.4 hPa ENE 13 km/h 19.3 km/h 37% 0.0 mm 452 W/m2
15:32 10.5 °C -3.6 °C 1024.4 hPa East 13 km/h 22.5 km/h 37% 0.0 mm 443 W/m2
15:37 10.5 °C -4 °C 1024.7 hPa East 9.7 km/h 30.6 km/h 36% 0.0 mm 432 W/m2
15:42 10.4 °C -3.7 °C 1024.7 hPa SE 16.3 km/h 20.9 km/h 37% 0.0 mm 422 W/m2
15:47 10.3 °C -4.1 °C 1024.7 hPa ENE 7.9 km/h 30.6 km/h 36% 0.0 mm 408 W/m2
15:52 10.3 °C -4.1 °C 1024.7 hPa ENE 19.5 km/h 19.3 km/h 36% 0.0 mm 397 W/m2
15:57 10.3 °C -4.1 °C 1024.4 hPa NE 11.1 km/h 19.3 km/h 36% 0.0 mm 385 W/m2
16:03 10.4 °C -4 °C 1024.7 hPa ESE 6.4 km/h 22.5 km/h 36% 0.0 mm 374 W/m2
16:08 10.3 °C -4.5 °C 1024.7 hPa ENE 14.3 km/h 25.7 km/h 35% 0.0 mm 364 W/m2
16:13 10.3 °C -4.5 °C 1024.7 hPa North 4.7 km/h 27.4 km/h 35% 0.0 mm 350 W/m2
16:18 10.3 °C -4.1 °C 1024.7 hPa East 13 km/h 27.4 km/h 36% 0.0 mm 339 W/m2
16:23 10.2 °C -3.9 °C 1025.1 hPa East 11.1 km/h 17.7 km/h 37% 0.0 mm 325 W/m2
16:28 10.2 °C -4.2 °C 1024.7 hPa ESE 19.5 km/h 24.1 km/h 36% 0.0 mm 297 W/m2
16:33 10.2 °C -3.9 °C 1024.7 hPa SE 6.4 km/h 12.9 km/h 37% 0.0 mm 276 W/m2
16:38 10.2 °C -4.2 °C 1024.7 hPa East 11.1 km/h 12.9 km/h 36% 0.0 mm 283 W/m2
16:43 10.2 °C -3.9 °C 1024.7 hPa SE 17.7 km/h 20.9 km/h 37% 0.0 mm 276 W/m2
16:48 10.1 °C -4.3 °C 1025.1 hPa SE 17.7 km/h 17.7 km/h 36% 0.0 mm 262 W/m2
16:53 10 °C -4.4 °C 1024.7 hPa ESE 20.9 km/h 20.9 km/h 36% 0.0 mm 251 W/m2
16:58 10 °C -4.4 °C 1025.1 hPa ESE 11.1 km/h 19.3 km/h 36% 0.0 mm 239 W/m2
17:03 9.9 °C -4.5 °C 1025.1 hPa NE 7.9 km/h 20.9 km/h 36% 0.0 mm 221 W/m2
17:08 9.8 °C -4.6 °C 1025.1 hPa East 16.3 km/h 24.1 km/h 36% 0.0 mm 207 W/m2
17:13 9.8 °C -4.6 °C 1025.1 hPa East 7.9 km/h 14.5 km/h 36% 0.0 mm 42 W/m2
17:18 9.7 °C -4.7 °C 1025.1 hPa East 16.3 km/h 22.5 km/h 36% 0.0 mm 183 W/m2
17:23 9.6 °C -4.4 °C 1025.1 hPa ENE 7.9 km/h 14.5 km/h 37% 0.0 mm 160 W/m2
17:28 9.7 °C -4.3 °C 1025.1 hPa ENE 7.9 km/h 22.5 km/h 37% 0.0 mm 146 W/m2
17:33 9.7 °C -4.3 °C 1025.1 hPa SE 13 km/h 27.4 km/h 37% 0.0 mm 128 W/m2
17:38 9.6 °C -4.4 °C 1025.1 hPa ENE 6.4 km/h 20.9 km/h 37% 0.0 mm 114 W/m2
17:43 9.5 °C -4.5 °C 1025.4 hPa ESE 11.1 km/h 11.3 km/h 37% 0.0 mm 102 W/m2
17:48 9.4 °C -4.6 °C 1025.4 hPa East 11.1 km/h 12.9 km/h 37% 0.0 mm 86 W/m2
17:53 9.3 °C -4.7 °C 1025.4 hPa ENE 4.7 km/h 25.7 km/h 37% 0.0 mm 81 W/m2
17:58 9.1 °C -4.8 °C 1025.7 hPa East 11.1 km/h 17.7 km/h 37% 0.0 mm 28 W/m2
18:03 8.9 °C -4.7 °C 1025.7 hPa ESE 11.1 km/h 25.7 km/h 38% 0.0 mm 23 W/m2
18:08 8.7 °C -4.8 °C 1025.7 hPa NE 4.7 km/h 17.7 km/h 38% 0.0 mm 21 W/m2
18:13 8.5 °C -4.7 °C 1025.7 hPa North 13 km/h 20.9 km/h 39% 0.0 mm 19 W/m2
18:18 8.4 °C -4.4 °C 1025.7 hPa East 6.4 km/h 14.5 km/h 40% 0.0 mm 18 W/m2
18:23 8.3 °C -4.9 °C 1025.7 hPa NE 9.7 km/h 16.1 km/h 39% 0.0 mm 16 W/m2
18:29 8.2 °C -4.9 °C 1026.1 hPa ENE 6.4 km/h 19.3 km/h 39% 0.0 mm 14 W/m2
18:34 8.1 °C -4.4 °C 1026.1 hPa ENE 7.9 km/h 8 km/h 41% 0.0 mm 12 W/m2
18:39 7.9 °C -4.5 °C 1026.1 hPa North 4.7 km/h 19.3 km/h 41% 0.0 mm 11 W/m2
18:44 7.8 °C -4.6 °C 1026.1 hPa East 6.4 km/h 11.3 km/h 41% 0.0 mm 9 W/m2
18:49 7.7 °C -4.7 °C 1026.1 hPa SE 13 km/h 16.1 km/h 41% 0.0 mm 7 W/m2
18:54 7.7 °C -4.7 °C 1026.4 hPa ESE 3.2 km/h 20.9 km/h 41% 0.0 mm 0 W/m2
18:59 7.6 °C -4.5 °C 1026.4 hPa ESE 13 km/h 14.5 km/h 42% 0.0 mm 0 W/m2
19:04 7.5 °C -4.9 °C 1026.4 hPa NNE 9.7 km/h 17.7 km/h 41% 0.0 mm 0 W/m2
19:09 7.4 °C -5 °C 1026.4 hPa ESE 11.1 km/h 14.5 km/h 41% 0.0 mm 0 W/m2
19:14 7.3 °C -4.8 °C 1026.8 hPa SE 4.7 km/h 9.7 km/h 42% 0.0 mm 0 W/m2
19:19 7.2 °C -4.9 °C 1026.8 hPa ENE 6.4 km/h 9.7 km/h 42% 0.0 mm 0 W/m2
19:24 7.2 °C -4.6 °C 1026.8 hPa ESE 9.7 km/h 12.9 km/h 43% 0.0 mm 0 W/m2
19:29 7 °C -4.7 °C 1026.8 hPa East 16.3 km/h 19.3 km/h 43% 0.0 mm 0 W/m2
19:34 6.9 °C -4.8 °C 1026.8 hPa East 6.4 km/h 12.9 km/h 43% 0.0 mm 0 W/m2
19:39 6.8 °C -4.9 °C 1026.8 hPa ENE 6.4 km/h 12.9 km/h 43% 0.0 mm 0 W/m2
19:44 6.7 °C -5 °C 1026.8 hPa ESE 4.7 km/h 6.4 km/h 43% 0.0 mm 0 W/m2
19:49 6.6 °C -4.8 °C 1027.1 hPa SE 1.4 km/h 9.7 km/h 44% 0.0 mm 0 W/m2
19:54 6.6 °C -4.8 °C 1027.1 hPa East 4.7 km/h 14.5 km/h 44% 0.0 mm 0 W/m2
19:59 6.6 °C -4.8 °C 1027.1 hPa ENE 7.9 km/h 12.9 km/h 44% 0.0 mm 0 W/m2
20:04 6.4 °C -5 °C 1027.1 hPa East 11.1 km/h 11.3 km/h 44% 0.0 mm 0 W/m2
20:09 6.4 °C -4.7 °C 1027.1 hPa East 9.7 km/h 9.7 km/h 45% 0.0 mm 0 W/m2
20:14 6.3 °C -4.8 °C 1027.1 hPa North 6.4 km/h 14.5 km/h 45% 0.0 mm 0 W/m2
20:19 6.2 °C -4.9 °C 1027.1 hPa NE 14.3 km/h 19.3 km/h 45% 0.0 mm 0 W/m2
20:24 6.2 °C -4.9 °C 1027.1 hPa East 13 km/h 17.7 km/h 45% 0.0 mm 0 W/m2
20:29 6.1 °C -4.9 °C 1027.1 hPa ENE 9.7 km/h 12.9 km/h 45% 0.0 mm 0 W/m2
20:34 6.1 °C -4.9 °C 1027.1 hPa ESE 9.7 km/h 14.5 km/h 45% 0.0 mm 0 W/m2
20:40 6.1 °C -4.9 °C 1027.1 hPa ESE 7.9 km/h 16.1 km/h 45% 0.0 mm 0 W/m2
20:45 6 °C -4.8 °C 1027.1 hPa ESE 4.7 km/h 16.1 km/h 46% 0.0 mm 0 W/m2
20:50 5.9 °C -4.8 °C 1027.1 hPa SE 7.9 km/h 12.9 km/h 46% 0.0 mm 0 W/m2
20:55 5.8 °C -4.6 °C 1027.1 hPa East 4.7 km/h 12.9 km/h 47% 0.0 mm 0 W/m2
21:00 5.7 °C -4.7 °C 1027.4 hPa East 7.9 km/h 14.5 km/h 47% 0.0 mm 0 W/m2
21:05 5.7 °C -4.7 °C 1027.4 hPa ESE 6.4 km/h 6.4 km/h 47% 0.0 mm 0 W/m2
21:10 5.6 °C -4.8 °C 1027.4 hPa ESE 3.2 km/h 11.3 km/h 47% 0.0 mm 0 W/m2
21:15 5.6 °C -4.6 °C 1027.4 hPa ESE 3.2 km/h 6.4 km/h 48% 0.0 mm 0 W/m2
21:20 5.5 °C -4.6 °C 1027.4 hPa NE 4.7 km/h 9.7 km/h 48% 0.0 mm 0 W/m2
21:25 5.4 °C -4.7 °C 1027.4 hPa ESE 14.3 km/h 19.3 km/h 48% 0.0 mm 0 W/m2
21:30 5.4 °C -4.7 °C 1027.4 hPa East 6.4 km/h 9.7 km/h 48% 0.0 mm 0 W/m2
21:35 5.4 °C -4.7 °C 1027.4 hPa SSE 3.2 km/h 16.1 km/h 48% 0.0 mm 0 W/m2
21:40 5.3 °C -4.6 °C 1027.4 hPa SE 4.7 km/h 6.4 km/h 49% 0.0 mm 0 W/m2
21:45 5.2 °C -4.6 °C 1027.8 hPa East 11.1 km/h 11.3 km/h 49% 0.0 mm 0 W/m2
21:50 5.1 °C -4.7 °C 1027.8 hPa ENE 13 km/h 14.5 km/h 49% 0.0 mm 0 W/m2
21:55 5.1 °C -5 °C 1027.8 hPa East 7.9 km/h 12.9 km/h 48% 0.0 mm 0 W/m2
22:00 5.1 °C -5 °C 1027.8 hPa ESE 6.4 km/h 20.9 km/h 48% 0.0 mm 0 W/m2
22:06 5.1 °C -5 °C 1027.8 hPa ESE 9.7 km/h 17.7 km/h 48% 0.0 mm 0 W/m2
22:11 5.1 °C -5 °C 1027.8 hPa ESE 9.7 km/h 14.5 km/h 48% 0.0 mm 0 W/m2
22:16 5.1 °C -5 °C 1027.8 hPa East 7.9 km/h 14.5 km/h 48% 0.0 mm 0 W/m2
22:21 5 °C -5.1 °C 1027.8 hPa ENE 16.3 km/h 16.1 km/h 48% 0.0 mm 0 W/m2
22:26 5 °C -5.1 °C 1027.8 hPa ENE 7.9 km/h 22.5 km/h 48% 0.0 mm 0 W/m2
22:31 4.9 °C -5.2 °C 1027.8 hPa ESE 6.4 km/h 20.9 km/h 48% 0.0 mm 0 W/m2
22:36 4.8 °C -5.3 °C 1027.8 hPa ESE 9.7 km/h 12.9 km/h 48% 0.0 mm 0 W/m2
22:41 4.8 °C -5 °C 1027.8 hPa ESE 9.7 km/h 20.9 km/h 49% 0.0 mm 0 W/m2
22:46 4.7 °C -5.1 °C 1027.8 hPa ENE 16.3 km/h 17.7 km/h 49% 0.0 mm 0 W/m2
22:51 4.7 °C -5.1 °C 1027.8 hPa East 6.4 km/h 9.7 km/h 49% 0.0 mm 0 W/m2
22:56 4.6 °C -5.2 °C 1027.8 hPa SE 7.9 km/h 14.5 km/h 49% 0.0 mm 0 W/m2
23:01 4.5 °C -5 °C 1028.1 hPa ESE 7.9 km/h 19.3 km/h 50% 0.0 mm 0 W/m2
23:06 4.4 °C -5.4 °C 1028.1 hPa East 11.1 km/h 16.1 km/h 49% 0.0 mm 0 W/m2
23:11 4.4 °C -5.1 °C 1027.8 hPa ESE 14.3 km/h 16.1 km/h 50% 0.0 mm 0 W/m2
23:16 4.3 °C -5.2 °C 1028.1 hPa ESE 11.1 km/h 16.1 km/h 50% 0.0 mm 0 W/m2
23:21 4.3 °C -5.2 °C 1027.8 hPa ENE 14.3 km/h 17.7 km/h 50% 0.0 mm 0 W/m2
23:26 4.2 °C -5.3 °C 1027.8 hPa East 28.8 km/h 32.2 km/h 50% 0.0 mm 0 W/m2
23:31 4.2 °C -5.3 °C 1028.1 hPa East 16.3 km/h 24.1 km/h 50% 0.0 mm 0 W/m2
23:36 4.2 °C -5.3 °C 1028.1 hPa SE 6.4 km/h 17.7 km/h 50% 0.0 mm 0 W/m2
23:41 4.1 °C -5.4 °C 1028.1 hPa ENE 14.3 km/h 16.1 km/h 50% 0.0 mm 0 W/m2
23:46 4 °C -5.2 °C 1028.1 hPa ENE 1.4 km/h 9.7 km/h 51% 0.0 mm 0 W/m2
23:51 3.9 °C -5.6 °C 1028.1 hPa East 4.7 km/h 16.1 km/h 50% 0.0 mm 0 W/m2
23:56 3.9 °C -5.6 °C 1028.1 hPa ESE 3.2 km/h 17.7 km/h 50% 0.0 mm 0 W/m2
Juneau County Weather
Compliments of Weather Underground - 4 mb